Tracking 19634 objects as of 22-May-2019
HD Live streaming from Space Station
objects crossing your sky now

TISAT 1

Track TISAT 1 now!
10-day predictions
TISAT 1 is classified as:


NORAD ID: 36799
Int'l Code: 2010-035E
Perigee: 593.0 km
Apogee: 610.4 km
Inclination: 98.2 °
Period: 96.6 minutes
Semi major axis: 6972 km
RCS: 0.056 m2 (small)
Launch date: July 12, 2010
Source: (SWTZ)
Launch site: SRIHARIKOTA (SRI)

Uplink (MHz): 145.980
Downlink (MHz): 437.305
Beacon (MHz): 145.980
Mode: FM AFSK PSK CW
Call sign: HB9DE
Status: Inactive

aabbcc
Your satellite tracking list
Your tracking list is empty




NASA's NSSDC Master Catalog

Two Line Element Set (TLE):
1 36799U 10035E   19140.96096640  .00000426  00000-0  49136-4 0  9997
2 36799  98.1521 292.1674 0012467 173.8909 186.2462 14.91084277480486
Source of the keplerian elements: Caltech